Timestamp, Local Timestamp, ID, PM25, PM10, Co2, Temperature, Relative Humidity, Monitor ID, O3
2023-04-14T16:46:09Z,04/14/23 12:46,10263334,0.993,0.0,3221,22.9,35.9,57,5.0
2023-04-14T16:47:09Z,04/14/23 12:47,10263344,2.186,0.001,3221,22.9,35.9,57,5.0
2023-04-14T16:48:09Z,04/14/23 12:48,10263354,1.191,0.0,3221,22.9,35.9,57,5.0
2023-04-14T16:49:09Z,04/14/23 12:49,10263363,0.991,0.002,3221,22.9,35.9,57,5.0
2023-04-14T16:50:09Z,04/14/23 12:50,10263374,1.234,0.005,3221,22.9,35.9,57,6.0
2023-04-14T16:51:09Z,04/14/23 12:51,10263384,1.0859999999999999,0.0,3221,22.9,35.9,57,4.0
2023-04-14T16:52:09Z,04/14/23 12:52,10263394,1.043,0.001,3221,22.9,35.9,57,5.0
2023-04-14T16:53:09Z,04/14/23 12:53,10263404,1.096,0.002,3221,22.9,35.9,57,4.0
2023-04-14T16:54:09Z,04/14/23 12:54,10263414,1.17,0.0,3221,22.9,35.9,57,4.0
2023-04-14T16:55:09Z,04/14/23 12:55,10263424,1.082,0.001,3221,22.9,35.9,57,5.0
2023-04-14T16:56:09Z,04/14/23 12:56,10263434,1.185,0.003,3221,22.9,35.9,57,5.0
2023-04-14T16:57:09Z,04/14/23 12:57,10263444,1.017,0.0,3221,22.9,35.9,57,6.0
2023-04-14T16:58:09Z,04/14/23 12:58,10263453,1.1039999999999999,0.0,3221,22.9,35.9,57,5.0
2023-04-14T16:59:09Z,04/14/23 12:59,10263464,1.08,0.0,3221,22.9,35.9,57,6.0
2023-04-14T17:00:09Z,04/14/23 13:00,10263474,1.0550000000000002,0.001,3221,22.9,35.9,57,5.0
2023-04-14T17:01:09Z,04/14/23 13:01,10263484,1.04,0.001,3221,22.9,35.9,57,5.0
2023-04-14T17:02:09Z,04/14/23 13:02,10263494,1.193,0.001,3221,22.9,35.9,57,5.0
2023-04-14T17:03:09Z,04/14/23 13:03,10263504,1.158,0.003,3221,22.9,35.9,57,5.0
2023-04-14T17:04:09Z,04/14/23 13:04,10263514,1.056,0.0,3221,22.9,35.9,57,6.0
2023-04-14T17:05:09Z,04/14/23 13:05,10263524,1.192,0.002,3221,22.9,35.9,57,6.0
2023-04-14T17:06:09Z,04/14/23 13:06,10263535,1.206,0.0,3221,22.9,35.9,57,5.0
2023-04-14T17:07:09Z,04/14/23 13:07,10263544,1.0630000000000002,0.002,3221,22.9,35.9,57,5.0
2023-04-14T17:08:09Z,04/14/23 13:08,10263554,1.133,0.001,3221,22.9,35.9,57,5.0
2023-04-14T17:09:09Z,04/14/23 13:09,10263564,1.111,0.002,3221,22.9,35.9,57,6.0
2023-04-14T17:10:09Z,04/14/23 13:10,10263575,1.208,0.001,3221,22.9,35.9,57,6.0
2023-04-14T17:11:09Z,04/14/23 13:11,10263584,1.075,0.002,3221,22.9,35.9,57,5.0
2023-04-14T17:12:09Z,04/14/23 13:12,10263594,1.1880000000000002,0.003,3221,22.9,35.9,57,5.0
2023-04-14T17:13:09Z,04/14/23 13:13,10263604,1.182,0.003,3221,22.9,35.9,57,5.0
2023-04-14T17:14:09Z,04/14/23 13:14,10263614,1.193,0.001,3221,22.9,35.9,57,6.0
2023-04-14T17:15:09Z,04/14/23 13:15,10263625,1.267,0.002,3221,22.9,35.9,57,6.0
2023-04-14T17:16:09Z,04/14/23 13:16,10263634,1.0779999999999998,0.002,3221,22.9,35.9,57,7.0
2023-04-14T17:17:09Z,04/14/23 13:17,10263644,1.092,0.003,3221,22.9,35.9,57,6.0
2023-04-14T17:18:09Z,04/14/23 13:18,10263655,1.135,0.002,3221,22.9,35.9,57,6.0
2023-04-14T17:19:09Z,04/14/23 13:19,10263664,1.244,0.001,3221,22.9,35.9,57,6.0
2023-04-14T17:20:09Z,04/14/23 13:20,10263674,1.125,0.003,3221,22.9,35.9,57,6.0
2023-04-14T17:21:09Z,04/14/23 13:21,10263683,1.24,0.002,3221,22.9,35.9,57,7.0
2023-04-14T17:22:09Z,04/14/23 13:22,10263694,1.077,0.0,3221,22.9,35.9,57,6.0
2023-04-14T17:23:09Z,04/14/23 13:23,10263704,1.317,0.0,3221,22.9,35.9,57,6.0
2023-04-14T17:24:09Z,04/14/23 13:24,10263714,1.141,0.002,3221,22.9,35.9,57,6.0
2023-04-14T17:25:09Z,04/14/23 13:25,10263724,1.125,0.003,3221,22.9,35.9,57,7.0
2023-04-14T17:26:09Z,04/14/23 13:26,10263734,1.091,0.001,3221,22.9,35.9,57,7.0
2023-04-14T17:27:09Z,04/14/23 13:27,10263744,1.267,0.002,3221,22.9,35.9,57,7.0
2023-04-14T17:28:09Z,04/14/23 13:28,10263754,1.151,0.001,3221,22.9,35.9,57,6.0
2023-04-14T17:29:09Z,04/14/23 13:29,10263764,1.16,0.001,3221,22.9,35.9,57,7.0
2023-04-14T17:30:09Z,04/14/23 13:30,10263774,1.074,0.003,3221,22.9,35.9,57,7.0
2023-04-14T17:31:09Z,04/14/23 13:31,10263784,1.105,0.002,3221,22.9,35.9,57,7.0
2023-04-14T17:32:09Z,04/14/23 13:32,10263794,1.239,0.006,3221,22.9,35.9,57,6.0
2023-04-14T17:33:09Z,04/14/23 13:33,10263804,1.181,0.001,3221,22.9,35.9,57,7.0
2023-04-14T17:34:09Z,04/14/23 13:34,10263814,1.0390000000000001,0.002,3221,22.9,35.9,57,7.0
2023-04-14T17:35:09Z,04/14/23 13:35,10263824,1.0939999999999999,0.001,3221,22.9,35.9,57,6.0
2023-04-14T17:36:09Z,04/14/23 13:36,10263835,1.121,0.001,3221,22.9,35.9,57,7.0
2023-04-14T17:37:09Z,04/14/23 13:37,10263844,1.294,0.002,3221,22.9,35.9,57,7.0
2023-04-14T17:38:09Z,04/14/23 13:38,10263854,1.131,0.0,3221,22.9,35.9,57,7.0
2023-04-14T17:39:09Z,04/14/23 13:39,10263865,1.191,0.003,3221,22.9,35.9,57,7.0
2023-04-14T17:40:09Z,04/14/23 13:40,10263874,1.032,0.003,3221,22.9,35.9,57,6.0
2023-04-14T17:41:09Z,04/14/23 13:41,10263884,1.153,0.005,3221,22.9,35.9,57,7.0
2023-04-14T17:42:09Z,04/14/23 13:42,10263894,0.986,0.001,3221,22.9,35.9,57,6.0
2023-04-14T17:43:09Z,04/14/23 13:43,10263904,1.1640000000000001,0.003,3221,22.9,35.9,57,7.0
2023-04-14T17:44:09Z,04/14/23 13:44,10263916,1.23,0.003,3221,22.9,35.9,57,7.0
2023-04-14T17:45:09Z,04/14/23 13:45,10263926,1.232,0.001,3221,22.9,35.9,57,6.0
2023-04-14T17:46:09Z,04/14/23 13:46,10263937,1.08,0.0,3221,22.9,35.9,57,7.0
2023-04-14T17:47:09Z,04/14/23 13:47,10263948,2.0140000000000002,0.002,3221,22.9,35.9,57,7.0
2023-04-14T17:48:09Z,04/14/23 13:48,10263959,1.2029999999999998,0.0,3221,22.9,35.9,57,7.0
2023-04-14T17:49:09Z,04/14/23 13:49,10263971,1.225,0.002,3221,22.9,35.9,57,7.0
2023-04-14T17:50:09Z,04/14/23 13:50,10263981,1.286,0.001,3221,22.9,35.9,57,7.0
2023-04-14T17:51:09Z,04/14/23 13:51,10263992,1.123,0.002,3221,22.9,35.9,57,7.0
2023-04-14T17:52:09Z,04/14/23 13:52,10264003,1.253,0.001,3221,22.9,35.9,57,7.0
2023-04-14T17:53:09Z,04/14/23 13:53,10264015,1.2890000000000001,0.001,3221,22.9,35.9,57,7.0
2023-04-14T17:54:09Z,04/14/23 13:54,10264025,1.326,0.0,3221,22.9,35.9,57,7.0
2023-04-14T17:55:09Z,04/14/23 13:55,10264036,1.198,0.002,3221,22.9,35.9,57,8.0
2023-04-14T17:56:09Z,04/14/23 13:56,10264047,1.253,0.001,3221,22.9,35.9,57,7.0
2023-04-14T17:57:09Z,04/14/23 13:57,10264058,1.1960000000000002,0.001,3221,22.9,35.9,57,8.0
2023-04-14T17:58:09Z,04/14/23 13:58,10264069,1.051,0.002,3221,22.9,35.9,57,7.0
2023-04-14T17:59:09Z,04/14/23 13:59,10264080,1.197,0.0,3221,22.9,35.9,57,7.0
2023-04-14T18:00:09Z,04/14/23 14:00,10264091,1.341,0.0,3221,22.9,35.9,57,8.0
2023-04-14T18:01:09Z,04/14/23 14:01,10264102,1.122,0.0,3221,22.9,35.9,57,8.0
2023-04-14T18:02:09Z,04/14/23 14:02,10264113,1.199,0.001,3221,22.9,35.9,57,7.0
2023-04-14T18:03:09Z,04/14/23 14:03,10264124,1.128,0.0,3221,22.9,35.9,57,7.0
2023-04-14T18:04:09Z,04/14/23 14:04,10264135,1.1179999999999999,0.001,3221,22.9,35.9,57,7.0
2023-04-14T18:05:09Z,04/14/23 14:05,10264146,1.244,0.004,3221,22.9,35.9,57,8.0
2023-04-14T18:06:09Z,04/14/23 14:06,10264157,1.2730000000000001,0.002,3221,22.9,35.9,57,7.0
2023-04-14T18:07:09Z,04/14/23 14:07,10264168,1.275,0.003,3221,22.9,35.9,57,8.0
2023-04-14T18:08:09Z,04/14/23 14:08,10264179,1.278,0.0,3221,22.9,35.9,57,7.0
2023-04-14T18:09:09Z,04/14/23 14:09,10264190,1.064,0.001,3221,22.9,35.9,57,7.0
2023-04-14T18:10:09Z,04/14/23 14:10,10264201,1.286,0.001,3221,22.9,35.9,57,8.0
2023-04-14T18:11:09Z,04/14/23 14:11,10264212,1.032,0.003,3221,22.9,35.9,57,8.0
2023-04-14T18:12:09Z,04/14/23 14:12,10264223,1.1099999999999999,0.003,3221,22.9,35.9,57,7.0
2023-04-14T18:13:09Z,04/14/23 14:13,10264234,1.096,0.002,3221,22.9,35.9,57,8.0
2023-04-14T18:14:09Z,04/14/23 14:14,10264245,1.253,0.001,3221,22.9,35.9,57,0.0
2023-04-14T18:15:09Z,04/14/23 14:15,10264256,1.124,0.001,3221,22.9,35.9,57,8.0
2023-04-14T18:16:09Z,04/14/23 14:16,10264267,1.167,0.0,3221,22.9,35.9,57,7.0
2023-04-14T18:17:09Z,04/14/23 14:17,10264278,1.2109999999999999,0.001,3221,22.9,35.9,57,8.0
2023-04-14T18:18:09Z,04/14/23 14:18,10264289,1.412,0.001,3221,22.9,35.9,57,7.0
2023-04-14T18:19:09Z,04/14/23 14:19,10264300,1.143,0.0,3221,22.9,35.9,57,8.0
2023-04-14T18:20:09Z,04/14/23 14:20,10264311,1.106,0.001,3221,22.9,35.9,57,8.0
2023-04-14T18:21:09Z,04/14/23 14:21,10264322,1.166,0.001,3221,22.9,35.9,57,8.0
2023-04-14T18:22:09Z,04/14/23 14:22,10264333,1.139,0.001,3221,22.9,35.9,57,8.0
2023-04-14T18:23:09Z,04/14/23 14:23,10264344,1.0310000000000001,0.001,3221,22.9,35.9,57,8.0
2023-04-14T18:24:09Z,04/14/23 14:24,10264355,1.221,0.003,3221,22.9,35.9,57,7.0
2023-04-14T18:25:09Z,04/14/23 14:25,10264366,1.165,0.002,3221,22.9,35.9,57,7.0
2023-04-14T18:26:09Z,04/14/23 14:26,10264377,1.251,0.0,3221,22.9,35.9,57,8.0
2023-04-14T18:27:09Z,04/14/23 14:27,10264388,1.292,0.004,3221,22.9,35.9,57,8.0
2023-04-14T18:28:09Z,04/14/23 14:28,10264399,1.095,0.0,3221,22.9,35.9,57,8.0
2023-04-14T18:29:09Z,04/14/23 14:29,10264409,1.394,0.001,3221,22.9,35.9,57,8.0
2023-04-14T18:30:09Z,04/14/23 14:30,10264421,1.2710000000000001,0.001,3221,22.9,35.9,57,8.0
2023-04-14T18:31:09Z,04/14/23 14:31,10264432,1.283,0.004,3221,22.9,35.9,57,8.0
2023-04-14T18:32:09Z,04/14/23 14:32,10264443,1.316,0.001,3221,22.9,35.9,57,8.0
2023-04-14T18:33:09Z,04/14/23 14:33,10264454,1.319,0.004,3221,22.9,35.9,57,8.0
2023-04-14T18:34:09Z,04/14/23 14:34,10264465,1.142,0.001,3221,22.9,35.9,57,9.0
2023-04-14T18:35:09Z,04/14/23 14:35,10264476,1.301,0.001,3221,22.9,35.9,57,8.0
2023-04-14T18:36:09Z,04/14/23 14:36,10264488,1.197,0.0,3221,22.9,35.9,57,8.0
2023-04-14T18:37:09Z,04/14/23 14:37,10264500,1.1300000000000001,0.001,3221,22.9,35.9,57,8.0
2023-04-14T18:38:09Z,04/14/23 14:38,10264512,1.0630000000000002,0.002,3221,22.9,35.9,57,9.0
2023-04-14T18:39:09Z,04/14/23 14:39,10264524,1.226,0.001,3221,22.9,35.9,57,8.0
2023-04-14T18:40:09Z,04/14/23 14:40,10264536,1.152,0.0,3221,22.9,35.9,57,8.0
2023-04-14T18:41:09Z,04/14/23 14:41,10264548,1.16,0.001,3221,22.9,35.9,57,8.0
2023-04-14T18:42:09Z,04/14/23 14:42,10264561,1.269,0.0,3221,22.9,35.9,57,8.0
2023-04-14T18:43:09Z,04/14/23 14:43,10264572,1.163,0.001,3221,22.9,35.9,57,8.0
2023-04-14T18:44:09Z,04/14/23 14:44,10264584,1.163,0.001,3221,22.9,35.9,57,8.0
2023-04-14T18:45:09Z,04/14/23 14:45,10264596,1.307,0.001,3221,22.9,35.9,57,8.0
2023-04-14T18:46:09Z,04/14/23 14:46,10264608,1.125,0.0,3221,22.9,35.9,57,8.0
2023-04-14T18:47:09Z,04/14/23 14:47,10264620,2.13,0.003,3221,22.9,35.9,57,8.0
2023-04-14T18:48:09Z,04/14/23 14:48,10264632,1.189,0.002,3221,22.9,35.9,57,9.0
2023-04-14T18:49:09Z,04/14/23 14:49,10264645,1.279,0.002,3221,22.9,35.9,57,8.0
2023-04-14T18:50:09Z,04/14/23 14:50,10264654,1.0539999999999998,0.002,3221,22.9,35.9,57,7.0
2023-04-14T18:51:09Z,04/14/23 14:51,10264667,1.155,0.0,3221,22.9,35.9,57,8.0
2023-04-14T18:52:09Z,04/14/23 14:52,10264677,1.1869999999999998,0.001,3221,22.9,35.9,57,7.0
2023-04-14T18:53:09Z,04/14/23 14:53,10264688,1.142,0.001,3221,22.9,35.9,57,7.0
2023-04-14T18:54:09Z,04/14/23 14:54,10264699,1.258,0.005,3221,22.9,35.9,57,7.0
2023-04-14T18:55:09Z,04/14/23 14:55,10264710,1.198,0.002,3221,22.9,35.9,57,7.0
2023-04-14T18:56:09Z,04/14/23 14:56,10264721,1.299,0.0,3221,22.9,35.9,57,5.0
2023-04-14T18:57:09Z,04/14/23 14:57,10264733,1.1320000000000001,0.002,3221,22.9,35.9,57,7.0
2023-04-14T18:58:09Z,04/14/23 14:58,10264743,1.234,0.002,3221,22.9,35.9,57,6.0
2023-04-14T18:59:09Z,04/14/23 14:59,10264754,1.153,0.005,3221,22.9,35.9,57,6.0
2023-04-14T19:00:09Z,04/14/23 15:00,10264766,1.2710000000000001,0.004,3221,22.9,35.9,57,5.0
2023-04-14T19:01:09Z,04/14/23 15:01,10264776,1.1039999999999999,0.003,3221,22.9,35.9,57,6.0
2023-04-14T19:02:09Z,04/14/23 15:02,10264787,1.088,0.007000000000000001,3221,22.9,35.9,57,3.0
2023-04-14T19:03:09Z,04/14/23 15:03,10264798,1.139,0.004,3221,22.9,35.9,57,4.0
2023-04-14T19:04:09Z,04/14/23 15:04,10264809,1.126,0.002,3221,22.9,35.9,57,4.0
2023-04-14T19:05:09Z,04/14/23 15:05,10264821,1.272,0.003,3221,22.9,35.9,57,4.0
2023-04-14T19:06:09Z,04/14/23 15:06,10264832,1.216,0.002,3221,22.9,35.9,57,4.0
2023-04-14T19:07:09Z,04/14/23 15:07,10264842,1.249,0.002,3221,22.9,35.9,57,4.0
2023-04-14T19:08:09Z,04/14/23 15:08,10264853,1.369,0.005,3221,22.9,35.9,57,3.0
2023-04-14T19:09:09Z,04/14/23 15:09,10264864,1.206,0.003,3221,22.9,35.9,57,4.0
2023-04-14T19:10:09Z,04/14/23 15:10,10264875,1.3980000000000001,0.0,3221,22.9,35.9,57,4.0
2023-04-14T19:11:09Z,04/14/23 15:11,10264886,1.275,0.003,3221,22.9,35.9,57,4.0
2023-04-14T19:12:09Z,04/14/23 15:12,10264897,1.111,0.002,3221,22.9,35.9,57,3.0
2023-04-14T19:13:09Z,04/14/23 15:13,10264908,1.41,0.003,3221,22.9,35.9,57,4.0
2023-04-14T19:14:09Z,04/14/23 15:14,10264919,1.1320000000000001,0.002,3221,22.9,35.9,57,5.0
2023-04-14T19:15:09Z,04/14/23 15:15,10264931,1.226,0.007000000000000001,3221,22.9,35.9,57,4.0
2023-04-14T19:16:09Z,04/14/23 15:16,10264941,1.073,0.001,3221,22.9,35.9,57,3.0
2023-04-14T19:17:09Z,04/14/23 15:17,10264952,1.1880000000000002,0.0,3221,22.9,35.9,57,4.0
2023-04-14T19:18:09Z,04/14/23 15:18,10264963,1.338,0.003,3221,22.9,35.9,57,4.0
2023-04-14T19:19:09Z,04/14/23 15:19,10264975,1.061,0.001,3221,22.9,35.9,57,3.0
2023-04-14T19:20:09Z,04/14/23 15:20,10264987,1.225,0.002,3221,22.9,35.9,57,3.0
2023-04-14T19:21:09Z,04/14/23 15:21,10264998,1.2189999999999999,0.002,3221,22.9,35.9,57,3.0
2023-04-14T19:22:09Z,04/14/23 15:22,10265009,1.357,0.002,3221,22.9,35.9,57,3.0
2023-04-14T19:23:09Z,04/14/23 15:23,10265020,0.9890000000000001,0.001,3221,22.9,35.9,57,2.0
2023-04-14T19:24:09Z,04/14/23 15:24,10265031,1.228,0.002,3221,22.9,35.9,57,3.0
2023-04-14T19:25:09Z,04/14/23 15:25,10265042,1.0630000000000002,0.002,3221,22.9,35.9,57,2.0
2023-04-14T19:26:09Z,04/14/23 15:26,10265054,1.335,0.003,3221,22.9,35.9,57,2.0
2023-04-14T19:27:09Z,04/14/23 15:27,10265064,1.185,0.003,3221,22.9,35.9,57,2.0
2023-04-14T19:28:09Z,04/14/23 15:28,10265075,1.193,0.001,3221,22.9,35.9,57,2.0
2023-04-14T19:29:09Z,04/14/23 15:29,10265086,1.174,0.002,3221,22.9,35.9,57,2.0
2023-04-14T19:30:09Z,04/14/23 15:30,10265098,1.2550000000000001,0.002,3221,22.9,35.9,57,2.0
2023-04-14T19:31:09Z,04/14/23 15:31,10265109,1.253,0.001,3221,22.9,35.9,57,1.0
2023-04-14T19:32:09Z,04/14/23 15:32,10265121,1.325,0.007000000000000001,3221,22.9,35.9,57,2.0
2023-04-14T19:33:09Z,04/14/23 15:33,10265133,1.167,0.0,3221,22.9,35.9,57,2.0
2023-04-14T19:34:09Z,04/14/23 15:34,10265144,1.425,0.003,3221,22.9,35.9,57,2.0
2023-04-14T19:35:09Z,04/14/23 15:35,10265155,1.176,0.003,3221,22.9,35.9,57,1.0
2023-04-14T19:36:09Z,04/14/23 15:36,10265166,1.2,0.003,3221,22.9,35.9,57,3.0
2023-04-14T19:37:09Z,04/14/23 15:37,10265177,1.31,0.001,3221,22.9,35.9,57,2.0
2023-04-14T19:38:09Z,04/14/23 15:38,10265189,1.272,0.009,3221,22.9,35.9,57,0.0
2023-04-14T19:39:09Z,04/14/23 15:39,10265199,1.088,0.001,3221,22.9,35.9,57,0.0
2023-04-14T19:40:09Z,04/14/23 15:40,10265209,1.3599999999999999,0.002,3221,22.9,35.9,57,1.0
2023-04-14T19:41:09Z,04/14/23 15:41,10265221,1.3,0.002,3221,22.9,35.9,57,0.0
2023-04-14T19:42:09Z,04/14/23 15:42,10265232,1.124,0.001,3221,22.9,35.9,57,1.0
2023-04-14T19:43:09Z,04/14/23 15:43,10265243,1.2710000000000001,0.001,3221,22.9,35.9,57,0.0
2023-04-14T19:44:09Z,04/14/23 15:44,10265255,1.041,0.003,3221,22.9,35.9,57,1.0
2023-04-14T19:45:09Z,04/14/23 15:45,10265265,1.292,0.001,3221,22.9,35.9,57,0.0
2023-04-14T19:46:09Z,04/14/23 15:46,10265276,1.141,0.005,3221,22.9,35.9,57,1.0
2023-04-14T19:47:09Z,04/14/23 15:47,10265287,2.332,0.002,3221,22.9,35.9,57,1.0
2023-04-14T19:48:09Z,04/14/23 15:48,10265298,1.242,0.0,3221,22.9,35.9,57,1.0
2023-04-14T19:49:09Z,04/14/23 15:49,10265309,1.3039999999999998,0.001,3221,22.9,35.9,57,0.0
2023-04-14T19:50:09Z,04/14/23 15:50,10265320,1.291,0.002,3221,22.9,35.9,57,0.0
2023-04-14T19:51:09Z,04/14/23 15:51,10265331,1.339,0.002,3221,22.9,35.9,57,0.0
2023-04-14T19:52:09Z,04/14/23 15:52,10265342,1.287,0.003,3221,22.9,35.9,57,0.0
2023-04-14T19:53:09Z,04/14/23 15:53,10265353,1.1869999999999998,0.001,3221,22.9,35.9,57,0.0
2023-04-14T19:54:09Z,04/14/23 15:54,10265365,1.171,0.002,3221,22.9,35.9,57,0.0
2023-04-14T19:55:09Z,04/14/23 15:55,10265377,1.241,0.001,3221,22.9,35.9,57,0.0
2023-04-14T19:56:09Z,04/14/23 15:56,10265389,1.292,0.001,3221,22.9,35.9,57,0.0
2023-04-14T19:57:09Z,04/14/23 15:57,10265401,0.991,0.002,3221,22.9,35.9,57,0.0
2023-04-14T19:58:09Z,04/14/23 15:58,10265413,1.339,0.002,3221,22.9,35.9,57,0.0
2023-04-14T19:59:09Z,04/14/23 15:59,10265424,1.592,0.004,3221,22.9,35.9,57,0.0
2023-04-14T20:00:09Z,04/14/23 16:00,10265435,1.212,0.0,3221,22.9,35.9,57,0.0
2023-04-14T20:01:09Z,04/14/23 16:01,10265446,1.173,0.0,3221,22.9,35.9,57,0.0
2023-04-14T20:02:09Z,04/14/23 16:02,10265457,1.307,0.004,3221,22.9,35.9,57,0.0
2023-04-14T20:03:09Z,04/14/23 16:03,10265468,1.327,0.002,3221,22.9,35.9,57,0.0
2023-04-14T20:04:09Z,04/14/23 16:04,10265479,1.2109999999999999,0.004,3221,22.9,35.9,57,0.0
2023-04-14T20:05:09Z,04/14/23 16:05,10265490,1.326,0.0,3221,22.9,35.9,57,0.0
2023-04-14T20:06:09Z,04/14/23 16:06,10265501,1.327,0.002,3221,22.9,35.9,57,0.0
2023-04-14T20:07:09Z,04/14/23 16:07,10265512,1.401,0.0,3221,22.9,35.9,57,0.0
2023-04-14T20:08:09Z,04/14/23 16:08,10265524,1.231,0.002,3221,22.9,35.9,57,0.0
2023-04-14T20:09:09Z,04/14/23 16:09,10265534,1.25,0.004,3221,22.9,35.9,57,0.0
2023-04-14T20:10:09Z,04/14/23 16:10,10265545,1.249,0.002,3221,22.9,35.9,57,0.0
2023-04-14T20:11:09Z,04/14/23 16:11,10265556,1.28,0.001,3221,22.9,35.9,57,0.0
2023-04-14T20:12:09Z,04/14/23 16:12,10265566,1.283,0.004,3221,22.9,35.9,57,0.0
2023-04-14T20:13:09Z,04/14/23 16:13,10265577,1.435,0.002,3221,22.9,35.9,57,0.0
2023-04-14T20:14:09Z,04/14/23 16:14,10265588,1.335,0.0,3221,22.9,35.9,57,0.0
2023-04-14T20:15:09Z,04/14/23 16:15,10265598,1.268,0.001,3221,22.9,35.9,57,0.0
2023-04-14T20:16:09Z,04/14/23 16:16,10265609,1.175,0.001,3221,22.9,35.9,57,0.0
2023-04-14T20:17:09Z,04/14/23 16:17,10265620,1.2710000000000001,0.001,3221,22.9,35.9,57,0.0
2023-04-14T20:18:09Z,04/14/23 16:18,10265632,1.248,0.0,3221,22.9,35.9,57,0.0
2023-04-14T20:19:09Z,04/14/23 16:19,10265642,1.28,0.004,3221,22.9,35.9,57,0.0
2023-04-14T20:20:09Z,04/14/23 16:20,10265653,1.342,0.002,3221,22.9,35.9,57,0.0
2023-04-14T20:21:09Z,04/14/23 16:21,10265664,1.374,0.003,3221,22.9,35.9,57,0.0
2023-04-14T20:22:09Z,04/14/23 16:22,10265675,1.247,0.004,3221,22.9,35.9,57,0.0
2023-04-14T20:23:09Z,04/14/23 16:23,10265686,1.066,0.002,3221,22.9,35.9,57,0.0
2023-04-14T20:24:09Z,04/14/23 16:24,10265697,1.181,0.004,3221,22.9,35.9,57,0.0
2023-04-14T20:25:09Z,04/14/23 16:25,10265708,1.2810000000000001,0.003,3221,22.9,35.9,57,0.0
2023-04-14T20:26:09Z,04/14/23 16:26,10265719,1.2570000000000001,0.0,3221,22.9,35.9,57,0.0
2023-04-14T20:27:09Z,04/14/23 16:27,10265730,1.31,0.004,3221,22.9,35.9,57,0.0
2023-04-14T20:28:09Z,04/14/23 16:28,10265741,1.24,0.002,3221,22.9,35.9,57,0.0
2023-04-14T20:29:09Z,04/14/23 16:29,10265752,1.192,0.002,3221,22.9,35.9,57,0.0
2023-04-14T20:30:09Z,04/14/23 16:30,10265763,1.295,0.001,3221,22.9,35.9,57,0.0
2023-04-14T20:31:09Z,04/14/23 16:31,10265774,1.334,0.001,3221,22.9,35.9,57,0.0
2023-04-14T20:32:09Z,04/14/23 16:32,10265785,1.296,0.003,3221,22.9,35.9,57,0.0
2023-04-14T20:33:09Z,04/14/23 16:33,10265797,1.283,0.004,3221,22.9,35.9,57,0.0
2023-04-14T20:34:09Z,04/14/23 16:34,10265807,1.2710000000000001,0.004,3221,22.9,35.9,57,0.0
2023-04-14T20:35:09Z,04/14/23 16:35,10265818,1.286,0.001,3221,22.9,35.9,57,0.0
2023-04-14T20:36:09Z,04/14/23 16:36,10265829,1.4220000000000002,0.003,3221,22.9,35.9,57,0.0
2023-04-14T20:37:09Z,04/14/23 16:37,10265841,1.416,0.0,3221,22.9,35.9,57,0.0
2023-04-14T20:38:09Z,04/14/23 16:38,10265851,1.224,0.006,3221,22.9,35.9,57,0.0
2023-04-14T20:39:09Z,04/14/23 16:39,10265862,1.287,0.003,3221,22.9,35.9,57,0.0
2023-04-14T20:40:09Z,04/14/23 16:40,10265873,1.35,0.0,3221,22.9,35.9,57,0.0
2023-04-14T20:41:09Z,04/14/23 16:41,10265884,1.332,0.003,3221,22.9,35.9,57,0.0
2023-04-14T20:42:09Z,04/14/23 16:42,10265895,1.143,0.0,3221,22.9,35.9,57,0.0
2023-04-14T20:43:09Z,04/14/23 16:43,10265907,1.149,0.0,3221,22.9,35.9,57,0.0
2023-04-14T20:44:09Z,04/14/23 16:44,10265917,1.2,0.0,3221,22.9,35.9,57,0.0
2023-04-14T20:45:09Z,04/14/23 16:45,10265928,1.1880000000000002,0.003,3221,22.9,35.9,57,0.0
2023-04-14T20:46:09Z,04/14/23 16:46,10265939,1.251,0.0,3221,22.9,35.9,57,0.0
2023-04-14T20:47:09Z,04/14/23 16:47,10265950,2.133,0.0,3221,22.9,35.9,57,0.0
2023-04-14T20:48:09Z,04/14/23 16:48,10265961,1.269,0.003,3221,22.9,35.9,57,0.0
2023-04-14T20:49:09Z,04/14/23 16:49,10265972,1.402,0.002,3221,22.9,35.9,57,0.0
2023-04-14T20:50:09Z,04/14/23 16:50,10265983,1.31,0.001,3221,22.9,35.9,57,0.0
2023-04-14T20:51:09Z,04/14/23 16:51,10265994,1.393,0.002,3221,22.9,35.9,57,0.0
2023-04-14T20:52:09Z,04/14/23 16:52,10266005,1.218,0.003,3221,22.9,35.9,57,0.0
2023-04-14T20:53:09Z,04/14/23 16:53,10266016,1.3210000000000002,0.002,3221,22.9,35.9,57,0.0
2023-04-14T20:54:09Z,04/14/23 16:54,10266027,1.09,0.002,3221,22.9,35.9,57,0.0
2023-04-14T20:55:09Z,04/14/23 16:55,10266038,1.244,0.001,3221,22.9,35.9,57,0.0
2023-04-14T20:56:09Z,04/14/23 16:56,10266050,1.2650000000000001,0.001,3221,22.9,35.9,57,0.0
2023-04-14T20:57:09Z,04/14/23 16:57,10266061,1.365,0.006,3221,22.9,35.9,57,0.0
2023-04-14T20:58:09Z,04/14/23 16:58,10266072,1.3,0.005,3221,22.9,35.9,57,0.0
2023-04-14T20:59:09Z,04/14/23 16:59,10266083,1.275,0.0,3221,22.9,35.9,57,0.0
2023-04-14T21:00:09Z,04/14/23 17:00,10266094,1.3359999999999999,0.002,3221,22.9,35.9,57,0.0
2023-04-14T21:01:09Z,04/14/23 17:01,10266105,1.283,0.004,3221,22.9,35.9,57,0.0
2023-04-14T21:02:09Z,04/14/23 17:02,10266116,1.439,0.001,3221,22.9,35.9,57,0.0
2023-04-14T21:03:09Z,04/14/23 17:03,10266127,1.085,0.001,3221,22.9,35.9,57,0.0
2023-04-14T21:04:09Z,04/14/23 17:04,10266138,1.212,0.006,3221,22.9,35.9,57,0.0
2023-04-14T21:05:09Z,04/14/23 17:05,10266149,1.283,0.001,3221,22.9,35.9,57,0.0
2023-04-14T21:06:09Z,04/14/23 17:06,10266160,1.374,0.0,3221,22.9,35.9,57,0.0
2023-04-14T21:07:09Z,04/14/23 17:07,10266172,1.342,0.005,3221,22.9,35.9,57,0.0
2023-04-14T21:08:09Z,04/14/23 17:08,10266182,1.411,0.005,3221,22.9,35.9,57,0.0
2023-04-14T21:09:09Z,04/14/23 17:09,10266193,1.449,0.006,3221,22.9,35.9,57,0.0
2023-04-14T21:10:09Z,04/14/23 17:10,10266204,1.361,0.004,3221,22.9,35.9,57,0.0
2023-04-14T21:11:09Z,04/14/23 17:11,10266215,1.1789999999999998,0.0,3221,22.9,35.9,57,0.0
2023-04-14T21:12:09Z,04/14/23 17:12,10266227,1.44,0.003,3221,22.9,35.9,57,0.0
2023-04-14T21:13:09Z,04/14/23 17:13,10266237,1.351,0.002,3221,22.9,35.9,57,0.0
2023-04-14T21:14:09Z,04/14/23 17:14,10266249,1.173,0.0,3221,22.9,35.9,57,0.0
2023-04-14T21:15:09Z,04/14/23 17:15,10266259,1.293,0.003,3221,22.9,35.9,57,0.0
2023-04-14T21:16:09Z,04/14/23 17:16,10266270,1.369,0.002,3221,22.9,35.9,57,0.0
2023-04-14T21:17:09Z,04/14/23 17:17,10266281,1.467,0.003,3221,22.9,35.9,57,0.0
2023-04-14T21:18:09Z,04/14/23 17:18,10266292,1.194,0.006,3221,22.9,35.9,57,0.0
2023-04-14T21:19:09Z,04/14/23 17:19,10266303,1.359,0.003,3221,22.9,35.9,57,0.0
2023-04-14T21:20:09Z,04/14/23 17:20,10266314,1.201,0.002,3221,22.9,35.9,57,0.0
2023-04-14T21:21:09Z,04/14/23 17:21,10266325,1.252,0.005,3221,22.9,35.9,57,0.0
2023-04-14T21:22:09Z,04/14/23 17:22,10266336,1.197,0.003,3221,22.9,35.9,57,0.0
2023-04-14T21:23:09Z,04/14/23 17:23,10266347,1.378,0.002,3221,22.9,35.9,57,0.0
2023-04-14T21:24:09Z,04/14/23 17:24,10266358,1.292,0.001,3221,22.9,35.9,57,0.0
2023-04-14T21:25:09Z,04/14/23 17:25,10266370,1.2730000000000001,0.002,3221,22.9,35.9,57,0.0
2023-04-14T21:26:09Z,04/14/23 17:26,10266380,1.436,0.001,3221,22.9,35.9,57,0.0
2023-04-14T21:27:09Z,04/14/23 17:27,10266391,1.475,0.004,3221,22.9,35.9,57,0.0
2023-04-14T21:28:09Z,04/14/23 17:28,10266402,1.246,0.002,3221,22.9,35.9,57,0.0
2023-04-14T21:29:09Z,04/14/23 17:29,10266413,1.259,0.001,3221,22.9,35.9,57,0.0
2023-04-14T21:30:09Z,04/14/23 17:30,10266424,1.331,0.001,3221,22.9,35.9,57,0.0
2023-04-14T21:31:09Z,04/14/23 17:31,10266435,1.4789999999999999,0.006,3221,22.9,35.9,57,0.0
2023-04-14T21:32:09Z,04/14/23 17:32,10266446,1.387,0.002,3221,22.9,35.9,57,0.0
2023-04-14T21:33:09Z,04/14/23 17:33,10266457,1.361,0.001,3221,22.9,35.9,57,0.0
2023-04-14T21:34:09Z,04/14/23 17:34,10266468,1.425,0.003,3221,22.9,35.9,57,0.0
2023-04-14T21:35:09Z,04/14/23 17:35,10266479,1.4529999999999998,0.002,3221,22.9,35.9,57,0.0
2023-04-14T21:36:09Z,04/14/23 17:36,10266490,1.41,0.003,3221,22.9,35.9,57,0.0